TimeEDT,TemperatureF,Dew PointF,Humidity,Sea Level PressureIn,VisibilityMPH,Wind Direction,Wind SpeedMPH,Gust SpeedMPH,PrecipitationIn,Events,Conditions,WindDirDegrees,DateUTC
12:16 AM,73.4,71.6,94,29.84,7.0,ENE,4.6,-,N/A,,Mostly Cloudy,60,2013-06-27 04:16:00
12:35 AM,71.6,69.8,94,29.84,6.0,NE,3.5,-,N/A,,Mostly Cloudy,40,2013-06-27 04:35:00
12:51 AM,72.0,70.0,93,29.83,6.0,NE,5.8,-,N/A,,Mostly Cloudy,40,2013-06-27 04:51:00
1:51 AM,72.0,70.0,93,29.83,5.0,NNE,3.5,-,N/A,,Overcast,20,2013-06-27 05:51:00
2:51 AM,70.0,68.0,93,29.81,5.0,NNE,5.8,-,N/A,,Overcast,20,2013-06-27 06:51:00
3:51 AM,70.0,66.9,90,29.81,8.0,NE,4.6,-,N/A,,Overcast,50,2013-06-27 07:51:00
4:51 AM,69.1,66.9,93,29.82,7.0,ENE,4.6,-,N/A,,Overcast,60,2013-06-27 08:51:00
5:51 AM,69.1,66.0,90,29.83,4.0,NE,6.9,-,N/A,,Overcast,50,2013-06-27 09:51:00
6:44 AM,68.0,66.2,94,29.84,2.0,NE,5.8,-,N/A,,Overcast,50,2013-06-27 10:44:00
6:51 AM,68.0,66.0,93,29.84,1.5,NE,5.8,-,N/A,,Overcast,50,2013-06-27 10:51:00
7:37 AM,66.2,66.2,100,29.85,0.8,NE,8.1,-,N/A,,Overcast,50,2013-06-27 11:37:00
7:51 AM,66.9,66.0,97,29.85,0.8,NE,8.1,-,N/A,,Overcast,50,2013-06-27 11:51:00
8:17 AM,66.2,64.4,94,29.85,1.0,NE,6.9,-,N/A,,Overcast,50,2013-06-27 12:17:00
8:51 AM,66.9,64.9,93,29.85,2.0,ENE,6.9,-,0.00,Rain,Light Rain,60,2013-06-27 12:51:00
9:19 AM,66.2,64.4,94,29.84,3.0,NE,9.2,-,0.00,,Overcast,50,2013-06-27 13:19:00
9:51 AM,68.0,66.0,93,29.83,3.0,NE,6.9,-,0.00,,Overcast,50,2013-06-27 13:51:00
10:51 AM,70.0,66.0,87,29.82,10.0,ENE,4.6,-,N/A,,Overcast,60,2013-06-27 14:51:00
11:51 AM,71.1,66.0,84,29.82,10.0,East,3.5,-,N/A,,Overcast,80,2013-06-27 15:51:00
12:51 PM,71.1,66.0,84,29.82,10.0,NNE,5.8,-,N/A,,Overcast,20,2013-06-27 16:51:00
1:51 PM,71.1,66.0,84,29.81,7.0,North,5.8,-,0.00,,Overcast,360,2013-06-27 17:51:00
2:27 PM,73.4,66.2,78,29.80,9.0,NNE,4.6,-,N/A,,Overcast,30,2013-06-27 18:27:00
2:51 PM,73.0,66.9,81,29.80,9.0,NNE,5.8,-,N/A,,Overcast,20,2013-06-27 18:51:00
3:51 PM,73.0,68.0,84,29.79,9.0,East,4.6,-,N/A,,Overcast,80,2013-06-27 19:51:00
4:51 PM,73.0,68.0,84,29.78,6.0,Calm,Calm,-,N/A,,Overcast,0,2013-06-27 20:51:00
5:51 PM,73.0,68.0,84,29.77,6.0,Calm,Calm,-,N/A,,Overcast,0,2013-06-27 21:51:00
6:49 PM,71.6,68.0,88,29.77,3.0,East,3.5,-,N/A,,Overcast,90,2013-06-27 22:49:00
6:51 PM,72.0,68.0,87,29.78,3.0,East,3.5,-,N/A,,Overcast,100,2013-06-27 22:51:00
7:51 PM,71.1,69.1,93,29.78,3.0,ENE,5.8,-,N/A,,Overcast,70,2013-06-27 23:51:00
8:51 PM,68.0,66.0,93,29.77,3.0,ENE,5.8,-,0.00,,Light Drizzle,70,2013-06-28 00:51:00
9:16 PM,68.0,66.2,94,29.78,3.0,East,5.8,-,0.00,,Light Drizzle,80,2013-06-28 01:16:00
9:41 PM,66.2,66.2,100,29.78,2.0,NE,4.6,-,0.00,,Light Drizzle,50,2013-06-28 01:41:00
9:51 PM,66.9,66.0,97,29.78,2.0,ENE,8.1,-,0.00,,Light Drizzle,70,2013-06-28 01:51:00
10:30 PM,66.2,66.2,100,29.77,1.8,ENE,6.9,-,0.00,,Light Drizzle,60,2013-06-28 02:30:00
10:51 PM,66.9,66.0,97,29.76,1.2,NE,6.9,-,0.00,,Light Drizzle,50,2013-06-28 02:51:00
11:18 PM,66.2,66.2,100,29.76,0.8,ENE,5.8,-,0.00,,Light Drizzle,70,2013-06-28 03:18:00
11:28 PM,66.2,66.2,100,29.75,1.0,ENE,5.8,-,0.00,,Light Drizzle,70,2013-06-28 03:28:00
11:51 PM,66.9,66.0,97,29.74,1.0,East,5.8,-,0.00,,Light Drizzle,80,2013-06-28 03:51:00